UTMN (RS23S) (53376 NORAD) Tracking and Keplerian Element Data

This shows tracking and keplerian element data for the satellite.

Feedback or suggestion? Click here.




ElementValue
Catalog53376
NameUTMN (RS23S)
Epoch Orbit9779
Epoch Day125.92583596
Epoch Year2024
RAAN47.4719
Inclination97.3719
Eccentricity0.0008773
Argument of Perigee163.5474
Mean Anonmoly196.6098
Mean Motion16.12683977
Decay Rate0.01342096
L11 53376U 22096G 24125.92583596 .01342096 12813-2 12313-2 0 9998
L22 53376 97.3719 47.4719 0008773 163.5474 196.6098 16.12683977 97790



Live tracking and technical data element details for UTMN (RS23S) (NORAD 53376). UTMN (RS23S) can be tracked NOW for your location showing map with azimuth and elevation plus other details from your city location.







IsCatalogInMostPopularTable: catalog: 53376, numindb: 59
Update: records affected: 1



GetName: 53376 UTMN (RS23S)

Hit Count: updated at: Thu, 23 Jan 2025 17:23:22 GMT